SCP
1 1 1 2 0 0 0 0 0 0 0 0 0 0 0 0 0 0 0 0 0 0 1 0 0 0 0 0 0 0 0 0 0 0 0 0 0 0 0 0 0 0 0
1 1 1 1 0 0 0 0 0 0 0 0 0 0 0 0 0 0 0 0 0 0 0 0 0 0 0 0 0 0 0 0 0 0 0 0 0 0 0 0 0 0 0
0 1 1 1 1 0 0 0 0 0 0 0 0 0 0 0 0 0 0 0 0 0 0 0 0 0 0 0 0 0 0 0 0 0 0 0 0 0 0 0 0 0 0
0 1 1 2 1 0 0 0 0 0 0 0 0 0 -0 0 0 0 0 0 0 0 0 0 0 0 0 0 0 0 0 0 0 0 0 0 0 0 0 0 0 0 0
0 1 1 2 1 0 0 0 0 0 0 0 0 0 0 0 0 0 0 0 0 0 0 0 0 0 0 0 0 0 0 0 0 0 0 0 0 0 0 0 0 0 0
-0 0 1 1 0 0 0 0 0 0 0 0 0 0 0 0 0 0 0 0 0 0 0 0 0 0 0 0 0 0 0 0 0 0 0 0 0 0 0 0 0 0 0
-0 -0 0 0 0 0 0 0 0 0 0 0 0 0 0 0 0 0 0 0 0 0 0 0 0 0 0 0 0 0 0 0 0 0 0 0 0 0 0 0 0 0 0
-0 -0 -0 0 0 1 0 0 0 0 0 0 0 0 0 0 0 0 0 0 0 0 0 0 0 0 0 0 0 0 0 0 0 0 0 0 0 0 0 0 0 0 0
-0 -0 -0 -0 0 0 0 0 0 0 0 0 0 0 0 0 0 0 0 0 0 0 0 0 0 0 0 0 0 0 0 0 0 0 0 0 0 0 0 0 0 0 0
-0 -0 -0 -0 -0 0 0 0 0 0 0 0 0 0 0 0 0 0 0 0 0 0 0 0 0 0 0 0 0 0 0 0 0 0 0 0 0 0 0 0 -0 0 0
-0 -0 -0 -0 -0 0 0 0 0 0 0 0 0 0 0 0 0 0 0 0 0 0 0 0 0 0 0 0 0 0 0 0 0 0 0 0 0 0 0 0 0 0 0
-0 -0 -0 -0 -0 0 0 0 0 0 0 0 0 0 0 0 0 0 0 0 0 0 0 0 0 0 0 0 0 0 0 0 0 0 0 0 0 0 0 0 0 0 0
-0 -0 -0 -0 -0 -0 0 0 0 0 0 0 0 0 0 0 0 0 0 0 0 0 0 0 0 0 0 0 0 0 0 0 0 0 0 0 0 0 0 0 0 0 0
-0 -0 -0 -0 -0 -0 -0 0 0 0 0 0 0 0 0 0 0 0 0 0 0 0 0 0 0 0 0 0 0 0 0 0 0 0 0 0 0 0 0 0 0 0 0
0 -0 -0 -0 -0 -0 -0 0 0 0 0 0 0 0 0 0 0 0 0 0 0 0 0 0 0 0 0 0 0 0 0 0 0 0 0 0 0 0 0 0 0 0 0
0 0 -0 -0 -0 -0 -0 -0 0 0 0 0 0 0 0 0 0 0 0 0 0 0 0 0 0 0 0 0 0 0 0 0 0 0 0 0 0 0 0 0 0 0 0
0 0 -0 0 -0 -0 -0 -0 0 0 0 0 0 0 0 0 0 0 0 0 0 0 0 0 0 0 0 0 0 0 0 0 0 0 0 0 0 0 0 0 0 0 0
0 0 0 -0 -0 -0 -0 -0 -0 0 0 0 0 0 0 0 0 0 0 0 0 0 0 0 0 0 0 0 0 0 0 0 0 0 0 0 0 0 0 0 0 0 0
0 0 0 0 -0 -0 -0 -0 -0 0 0 0 0 0 0 0 0 0 0 0 0 0 0 0 0 0 0 0 0 0 0 0 0 0 0 0 0 0 0 0 0 0 0
-0 -0 -0 0 0 -0 -0 0 -0 0 0 0 0 0 0 0 0 0 0 0 0 0 0 0 0 0 0 0 0 0 0 0 0 0 0 0 0 0 0 0 0 0 0
0 -0 -0 -0 -0 -0 -0 -0 -0 -0 0 0 0 0 0 0 0 0 0 0 0 0 0 0 0 0 0 0 0 0 0 0 0 0 0 0 0 0 0 0 0 0 0
-0 0 -0 -0 -0 -0 -0 0 0 -0 0 0 0 0 0 0 0 0 0 0 0 0 0 0 0 0 0 0 0 0 0 0 0 0 0 0 0 0 0 0 0 0 0
-0 0 0 0 -0 -0 0 0 0 0 0 0 0 0 0 0 0 0 0 0 0 0 0 0 0 0 0 0 0 0 0 0 0 0 0 0 0 0 0 0 0 0 0
-0 0 0 0 -0 -0 -0 0 0 0 -0 0 0 0 0 0 0 0 0 0 0 0 0 0 0 0 0 0 0 0 0 0 0 0 0 0 0 0 0 0 0 0 0
-0 0 0 0 0 -0 -0 0 0 0 0 0 0 0 0 0 0 0 0 0 0 0 0 0 0 0 0 0 0 0 0 0 0 0 0 0 0 0 0 0 0 0 0
0 0 0 0 0 0 0 0 0 0 0 0 0 0 0 0 0 0 0 0 0 0 0 0 0 0 0 0 0 0 0 0 0 0 0 0 0 0 0 0 0 0 0
Wind_Speed_500mb
77 77 74 78 75 67 63 60 52 56 70 73 77 82 77 78 73 69 63 59 62 74 83 81 72 61 52 44 48 47 46 48 47 41 35 38 37 43 41 41 39 37 29
83 79 76 75 77 71 67 61 58 62 66 65 69 79 77 77 75 75 71 65 67 66 86 82 71 60 51 45 50 58 51 49 47 40 46 47 47 45 44 39 35 33 31
86 86 81 80 82 78 71 64 63 56 70 72 60 40 27 66 70 68 58 65 72 62 65 73 69 60 55 50 60 59 59 54 48 51 52 49 47 41 38 38 37 36 35
82 85 86 87 87 82 77 72 69 64 71 75 64 50 37 40 49 50 57 60 65 65 58 60 57 55 54 66 66 60 56 55 57 58 52 48 41 40 40 40 40 39 39
68 82 85 89 96 103 88 82 79 83 86 85 78 63 75 78 80 64 52 64 64 65 54 61 65 64 68 65 63 57 55 60 57 53 48 46 44 43 44 42 42 41 42
70 59 77 90 95 115 97 89 87 88 81 76 72 74 77 84 79 87 80 49 67 67 56 65 73 69 62 55 54 55 56 57 56 53 52 49 47 48 46 46 45 43 42
76 84 61 77 94 84 91 90 85 91 84 84 87 80 80 79 76 78 97 91 48 55 64 66 65 63 55 53 52 55 56 57 56 54 54 54 53 51 49 48 43 40 38
81 88 97 83 94 100 97 92 95 100 98 101 98 72 54 68 74 68 65 84 87 69 59 64 65 61 59 49 53 58 57 56 56 57 58 59 56 51 48 45 39 35 31
89 82 81 107 81 93 100 122 107 110 110 104 103 96 46 31 72 78 65 64 77 79 66 63 68 67 65 58 56 58 57 58 59 61 60 58 54 50 46 41 34 26 27
81 83 59 88 103 64 94 93 113 118 109 106 108 99 79 77 82 48 72 63 75 77 77 85 77 69 63 65 60 60 60 59 60 58 57 54 49 47 39 27 29 35 33
80 82 79 65 89 88 87 104 121 111 119 113 127 102 73 65 90 85 76 79 72 77 90 93 88 81 72 68 76 65 60 60 57 54 51 47 40 36 32 41 36 34 33
80 77 84 69 68 109 72 92 108 115 125 123 121 130 109 82 90 88 81 90 95 90 98 105 92 88 84 79 79 72 65 57 55 51 48 46 43 43 46 42 37 35 34
73 79 82 61 68 74 76 72 105 114 125 124 122 130 120 107 92 97 85 85 92 93 90 105 98 93 87 86 83 74 69 57 63 46 52 46 39 41 40 37 35 35 34
72 77 76 78 61 73 90 95 99 107 97 134 128 125 119 108 106 105 102 98 82 88 85 99 102 91 88 87 83 78 69 58 58 50 57 48 43 41 37 38 39 38 35
59 74 79 83 75 63 54 86 32 114 109 105 122 131 131 109 110 114 114 118 100 77 79 84 99 95 93 89 85 78 70 65 57 61 61 53 47 44 42 43 42 40 39
59 63 75 78 73 64 65 67 90 79 107 105 124 129 131 121 114 106 111 113 102 90 69 95 107 102 95 90 84 81 74 68 66 60 62 56 55 50 49 46 44 45 46
67 55 66 83 74 63 63 54 73 51 103 107 119 132 134 125 105 108 110 107 113 108 86 89 96 96 97 92 86 80 76 74 70 69 65 62 59 54 51 50 52 50 53
71 63 43 64 66 62 59 54 50 88 89 125 111 128 140 138 116 113 104 108 109 105 103 95 90 100 96 93 86 84 80 73 69 69 66 62 59 58 57 56 57 58 56
79 74 58 41 66 60 58 53 50 60 75 120 137 130 136 138 131 120 111 113 109 115 101 100 110 101 98 94 88 83 76 71 69 64 64 60 59 61 61 62 60 59 58
70 84 81 60 45 60 63 56 53 64 47 116 132 131 134 139 139 123 118 117 111 109 109 91 99 103 102 99 95 94 81 74 73 70 68 67 66 64 63 64 64 61 57
69 75 92 95 73 62 69 56 58 47 53 113 110 121 130 139 140 135 131 121 114 107 101 102 97 95 94 101 103 92 87 85 78 79 76 75 73 73 74 70 66 63 60
76 75 81 94 100 81 83 72 59 54 94 98 126 130 133 137 146 139 142 132 125 117 113 106 104 101 101 97 103 108 103 95 86 83 84 84 81 84 81 77 73 68 65
68 73 75 84 102 101 95 93 71 65 85 83 130 133 135 138 134 140 139 124 118 113 119 120 122 110 100 98 102 115 114 106 104 103 99 93 94 89 84 80 75 71 68
71 67 77 74 86 86 94 94 82 74 94 71 131 134 139 140 137 136 133 127 116 109 109 112 109 106 97 94 100 115 118 110 105 99 104 103 101 96 90 84 78 74 72
68 66 70 70 54 76 82 91 74 80 85 78 124 126 138 135 134 134 131 126 123 115 105 102 99 93 87 82 86 109 102 105 86 85 101 101 108 103 97 90 84 79 78
62 57 64 58 62 56 76 79 68 74 74 90 135 132 138 132 138 142 134 127 131 118 110 110 102 94 84 77 85 91 103 105 112 86 95 105 97 104 86 98 89 88 89
Wind_Direction_500mb
260 255 250 249 246 243 239 237 235 219 215 220 224 217 216 199 192 194 194 197 200 200 190 180 178 180 186 186 179 175 177 172 178 183 169 151 145 137 136 136 134 133 129
263 255 250 242 243 241 234 232 234 220 216 212 202 196 197 195 197 197 201 199 198 191 178 179 178 185 193 199 174 169 170 165 177 179 150 146 141 142 144 140 136 134 128
266 259 252 241 238 238 229 224 226 223 220 205 181 178 231 187 194 198 197 197 198 201 184 186 180 181 192 187 166 170 167 156 164 152 153 149 156 154 146 141 139 135 129
267 265 256 244 234 233 227 219 213 211 199 199 219 227 239 222 177 189 196 196 198 193 179 174 180 182 175 165 169 171 166 159 155 158 157 161 157 152 149 145 142 137 127
277 266 255 247 238 231 222 219 214 211 216 221 229 218 207 213 232 218 200 186 189 189 183 181 170 171 166 167 168 170 168 162 164 166 166 159 157 155 150 145 141 135 129
291 282 266 253 247 215 211 212 215 214 220 224 214 205 204 209 206 203 200 189 183 184 182 180 170 164 167 173 172 167 160 164 166 168 163 160 157 153 149 144 140 136 131
290 285 284 265 257 234 215 209 210 211 210 205 190 192 194 192 192 195 197 209 197 181 184 178 164 168 172 178 172 165 165 166 168 166 163 158 156 153 150 144 142 139 135
298 303 272 285 255 235 216 214 208 198 196 192 184 178 169 185 191 194 196 205 200 190 186 180 173 176 178 183 182 177 172 170 169 165 161 158 157 154 149 145 144 138 136
302 307 276 272 300 252 215 208 206 200 191 193 195 186 165 177 185 192 189 186 193 200 202 198 191 189 187 196 189 184 177 172 170 166 163 162 158 155 152 148 151 159 155
294 301 298 274 275 280 245 205 209 206 204 193 196 194 196 194 177 179 198 191 201 199 202 192 190 189 190 194 187 186 177 173 170 167 164 163 159 158 155 165 165 156 156
290 297 302 288 278 275 272 205 195 204 204 194 196 186 189 184 188 178 179 195 199 205 196 189 194 193 195 201 185 184 178 172 170 166 167 166 165 168 174 170 177 178 178
288 283 296 302 271 266 300 233 212 207 202 203 197 198 197 184 186 183 180 189 193 194 191 190 190 187 187 191 185 185 182 176 176 172 173 171 173 177 181 189 191 189 192
285 282 293 303 278 280 276 245 205 203 207 202 201 201 198 193 197 189 178 176 181 187 193 179 184 187 187 186 189 189 188 193 189 190 183 185 187 192 195 201 202 205 203
284 281 285 290 300 279 273 291 229 216 201 196 204 200 194 196 193 189 185 181 175 175 187 177 185 189 192 191 194 195 193 199 191 197 194 201 203 207 209 209 208 206 204
299 281 286 291 303 294 272 261 312 208 206 201 201 202 203 191 193 197 199 194 180 177 186 185 191 191 195 196 197 200 201 204 202 204 209 211 215 213 214 213 211 208 205
296 294 279 283 295 293 285 269 272 265 205 204 198 199 198 190 193 195 203 211 207 191 182 191 194 196 194 196 198 203 206 208 213 214 215 217 220 215 214 214 211 206 203
278 292 278 279 286 293 288 268 261 238 207 207 200 198 199 193 189 194 202 207 208 205 201 200 201 199 200 199 199 203 207 213 217 219 220 218 216 214 213 208 210 204 195
276 274 289 270 270 279 295 266 256 259 220 208 209 196 201 196 191 196 199 207 208 200 200 199 199 197 202 203 205 210 212 215 219 220 216 212 210 210 208 207 205 201 199
269 258 261 283 270 276 283 276 263 248 220 200 201 197 200 203 199 204 204 208 207 207 201 203 201 204 204 205 206 211 212 216 217 215 210 207 206 207 208 207 201 203 205
279 262 255 257 269 274 273 280 262 234 256 200 199 206 205 209 207 202 199 201 203 202 201 205 209 206 208 203 208 210 207 211 208 205 204 202 203 207 206 204 204 206 210
282 277 258 253 254 259 270 276 264 265 270 206 204 204 211 213 207 208 202 201 203 204 205 204 210 206 203 200 201 205 209 205 202 204 199 200 201 202 203 205 205 210 215
284 285 267 255 254 253 258 268 270 271 232 213 203 201 208 212 210 212 212 215 210 205 203 208 210 210 210 212 212 209 207 196 192 201 205 204 203 206 206 206 208 212 212
276 282 276 255 250 249 253 262 268 270 225 221 208 201 200 210 211 214 212 213 215 217 219 219 219 216 216 214 212 207 208 208 209 206 201 203 204 207 209 210 211 213 212
276 272 277 266 251 250 253 259 264 268 229 238 205 209 203 207 210 213 209 205 211 215 218 225 229 228 221 218 217 214 208 203 206 207 204 202 206 209 209 212 213 214 213
277 263 269 271 253 247 251 255 260 260 228 231 205 212 206 209 210 211 209 206 210 214 219 225 228 228 229 225 225 211 203 203 203 207 205 209 207 208 210 212 211 213 214
282 266 268 253 244 242 244 253 251 253 229 216 204 212 215 216 211 209 209 209 211 212 212 214 217 221 224 224 226 224 221 209 207 205 208 206 212 211 208 213 212 213 212
Wind_Speed_850mb
77 77 74 78 75 67 63 60 52 56 70 73 77 82 77 78 73 69 63 59 62 74 83 81 72 61 52 44 48 47 46 48 47 41 35 38 37 43 41 41 39 37 29
83 79 76 75 77 71 67 61 58 62 66 65 69 79 77 77 75 75 71 65 67 66 86 82 71 60 51 45 50 58 51 49 47 40 46 47 47 45 44 39 35 33 31
86 86 81 80 82 78 71 64 63 56 70 72 60 40 27 66 70 68 58 65 72 62 65 73 69 60 55 50 60 59 59 54 48 51 52 49 47 41 38 38 37 36 35
82 85 86 87 87 82 77 72 69 64 71 75 64 50 37 40 49 50 57 60 65 65 58 60 57 55 54 66 66 60 56 55 57 58 52 48 41 40 40 40 40 39 39
68 82 85 89 96 103 88 82 79 83 86 85 78 63 75 78 80 64 52 64 64 65 54 61 65 64 68 65 63 57 55 60 57 53 48 46 44 43 44 42 42 41 42
70 59 77 90 95 115 97 89 87 88 81 76 72 74 77 84 79 87 80 49 67 67 56 65 73 69 62 55 54 55 56 57 56 53 52 49 47 48 46 46 45 43 42
76 84 61 77 94 84 91 90 85 91 84 84 87 80 80 79 76 78 97 91 48 55 64 66 65 63 55 53 52 55 56 57 56 54 54 54 53 51 49 48 43 40 38
81 88 97 83 94 100 97 92 95 100 98 101 98 72 54 68 74 68 65 84 87 69 59 64 65 61 59 49 53 58 57 56 56 57 58 59 56 51 48 45 39 35 31
89 82 81 107 81 93 100 122 107 110 110 104 103 96 46 31 72 78 65 64 77 79 66 63 68 67 65 58 56 58 57 58 59 61 60 58 54 50 46 41 34 26 27
81 83 59 88 103 64 94 93 113 118 109 106 108 99 79 77 82 48 72 63 75 77 77 85 77 69 63 65 60 60 60 59 60 58 57 54 49 47 39 27 29 35 33
80 82 79 65 89 88 87 104 121 111 119 113 127 102 73 65 90 85 76 79 72 77 90 93 88 81 72 68 76 65 60 60 57 54 51 47 40 36 32 41 36 34 33
80 77 84 69 68 109 72 92 108 115 125 123 121 130 109 82 90 88 81 90 95 90 98 105 92 88 84 79 79 72 65 57 55 51 48 46 43 43 46 42 37 35 34
73 79 82 61 68 74 76 72 105 114 125 124 122 130 120 107 92 97 85 85 92 93 90 105 98 93 87 86 83 74 69 57 63 46 52 46 39 41 40 37 35 35 34
72 77 76 78 61 73 90 95 99 107 97 134 128 125 119 108 106 105 102 98 82 88 85 99 102 91 88 87 83 78 69 58 58 50 57 48 43 41 37 38 39 38 35
59 74 79 83 75 63 54 86 32 114 109 105 122 131 131 109 110 114 114 118 100 77 79 84 99 95 93 89 85 78 70 65 57 61 61 53 47 44 42 43 42 40 39
59 63 75 78 73 64 65 67 90 79 107 105 124 129 131 121 114 106 111 113 102 90 69 95 107 102 95 90 84 81 74 68 66 60 62 56 55 50 49 46 44 45 46
67 55 66 83 74 63 63 54 73 51 103 107 119 132 134 125 105 108 110 107 113 108 86 89 96 96 97 92 86 80 76 74 70 69 65 62 59 54 51 50 52 50 53
71 63 43 64 66 62 59 54 50 88 89 125 111 128 140 138 116 113 104 108 109 105 103 95 90 100 96 93 86 84 80 73 69 69 66 62 59 58 57 56 57 58 56
79 74 58 41 66 60 58 53 50 60 75 120 137 130 136 138 131 120 111 113 109 115 101 100 110 101 98 94 88 83 76 71 69 64 64 60 59 61 61 62 60 59 58
70 84 81 60 45 60 63 56 53 64 47 116 132 131 134 139 139 123 118 117 111 109 109 91 99 103 102 99 95 94 81 74 73 70 68 67 66 64 63 64 64 61 57
69 75 92 95 73 62 69 56 58 47 53 113 110 121 130 139 140 135 131 121 114 107 101 102 97 95 94 101 103 92 87 85 78 79 76 75 73 73 74 70 66 63 60
76 75 81 94 100 81 83 72 59 54 94 98 126 130 133 137 146 139 142 132 125 117 113 106 104 101 101 97 103 108 103 95 86 83 84 84 81 84 81 77 73 68 65
68 73 75 84 102 101 95 93 71 65 85 83 130 133 135 138 134 140 139 124 118 113 119 120 122 110 100 98 102 115 114 106 104 103 99 93 94 89 84 80 75 71 68
71 67 77 74 86 86 94 94 82 74 94 71 131 134 139 140 137 136 133 127 116 109 109 112 109 106 97 94 100 115 118 110 105 99 104 103 101 96 90 84 78 74 72
68 66 70 70 54 76 82 91 74 80 85 78 124 126 138 135 134 134 131 126 123 115 105 102 99 93 87 82 86 109 102 105 86 85 101 101 108 103 97 90 84 79 78
62 57 64 58 62 56 76 79 68 74 74 90 135 132 138 132 138 142 134 127 131 118 110 110 102 94 84 77 85 91 103 105 112 86 95 105 97 104 86 98 89 88 89
Wind_Direction_850mb
260 255 250 249 246 243 239 237 235 219 215 220 224 217 216 199 192 194 194 197 200 200 190 180 178 180 186 186 179 175 177 172 178 183 169 151 145 137 136 136 134 133 129
263 255 250 242 243 241 234 232 234 220 216 212 202 196 197 195 197 197 201 199 198 191 178 179 178 185 193 199 174 169 170 165 177 179 150 146 141 142 144 140 136 134 128
266 259 252 241 238 238 229 224 226 223 220 205 181 178 231 187 194 198 197 197 198 201 184 186 180 181 192 187 166 170 167 156 164 152 153 149 156 154 146 141 139 135 129
267 265 256 244 234 233 227 219 213 211 199 199 219 227 239 222 177 189 196 196 198 193 179 174 180 182 175 165 169 171 166 159 155 158 157 161 157 152 149 145 142 137 127
277 266 255 247 238 231 222 219 214 211 216 221 229 218 207 213 232 218 200 186 189 189 183 181 170 171 166 167 168 170 168 162 164 166 166 159 157 155 150 145 141 135 129
291 282 266 253 247 215 211 212 215 214 220 224 214 205 204 209 206 203 200 189 183 184 182 180 170 164 167 173 172 167 160 164 166 168 163 160 157 153 149 144 140 136 131
290 285 284 265 257 234 215 209 210 211 210 205 190 192 194 192 192 195 197 209 197 181 184 178 164 168 172 178 172 165 165 166 168 166 163 158 156 153 150 144 142 139 135
298 303 272 285 255 235 216 214 208 198 196 192 184 178 169 185 191 194 196 205 200 190 186 180 173 176 178 183 182 177 172 170 169 165 161 158 157 154 149 145 144 138 136
302 307 276 272 300 252 215 208 206 200 191 193 195 186 165 177 185 192 189 186 193 200 202 198 191 189 187 196 189 184 177 172 170 166 163 162 158 155 152 148 151 159 155
294 301 298 274 275 280 245 205 209 206 204 193 196 194 196 194 177 179 198 191 201 199 202 192 190 189 190 194 187 186 177 173 170 167 164 163 159 158 155 165 165 156 156
290 297 302 288 278 275 272 205 195 204 204 194 196 186 189 184 188 178 179 195 199 205 196 189 194 193 195 201 185 184 178 172 170 166 167 166 165 168 174 170 177 178 178
288 283 296 302 271 266 300 233 212 207 202 203 197 198 197 184 186 183 180 189 193 194 191 190 190 187 187 191 185 185 182 176 176 172 173 171 173 177 181 189 191 189 192
285 282 293 303 278 280 276 245 205 203 207 202 201 201 198 193 197 189 178 176 181 187 193 179 184 187 187 186 189 189 188 193 189 190 183 185 187 192 195 201 202 205 203
284 281 285 290 300 279 273 291 229 216 201 196 204 200 194 196 193 189 185 181 175 175 187 177 185 189 192 191 194 195 193 199 191 197 194 201 203 207 209 209 208 206 204
299 281 286 291 303 294 272 261 312 208 206 201 201 202 203 191 193 197 199 194 180 177 186 185 191 191 195 196 197 200 201 204 202 204 209 211 215 213 214 213 211 208 205
296 294 279 283 295 293 285 269 272 265 205 204 198 199 198 190 193 195 203 211 207 191 182 191 194 196 194 196 198 203 206 208 213 214 215 217 220 215 214 214 211 206 203
278 292 278 279 286 293 288 268 261 238 207 207 200 198 199 193 189 194 202 207 208 205 201 200 201 199 200 199 199 203 207 213 217 219 220 218 216 214 213 208 210 204 195
276 274 289 270 270 279 295 266 256 259 220 208 209 196 201 196 191 196 199 207 208 200 200 199 199 197 202 203 205 210 212 215 219 220 216 212 210 210 208 207 205 201 199
269 258 261 283 270 276 283 276 263 248 220 200 201 197 200 203 199 204 204 208 207 207 201 203 201 204 204 205 206 211 212 216 217 215 210 207 206 207 208 207 201 203 205
279 262 255 257 269 274 273 280 262 234 256 200 199 206 205 209 207 202 199 201 203 202 201 205 209 206 208 203 208 210 207 211 208 205 204 202 203 207 206 204 204 206 210
282 277 258 253 254 259 270 276 264 265 270 206 204 204 211 213 207 208 202 201 203 204 205 204 210 206 203 200 201 205 209 205 202 204 199 200 201 202 203 205 205 210 215
284 285 267 255 254 253 258 268 270 271 232 213 203 201 208 212 210 212 212 215 210 205 203 208 210 210 210 212 212 209 207 196 192 201 205 204 203 206 206 206 208 212 212
276 282 276 255 250 249 253 262 268 270 225 221 208 201 200 210 211 214 212 213 215 217 219 219 219 216 216 214 212 207 208 208 209 206 201 203 204 207 209 210 211 213 212
276 272 277 266 251 250 253 259 264 268 229 238 205 209 203 207 210 213 209 205 211 215 218 225 229 228 221 218 217 214 208 203 206 207 204 202 206 209 209 212 213 214 213
277 263 269 271 253 247 251 255 260 260 228 231 205 212 206 209 210 211 209 206 210 214 219 225 228 228 229 225 225 211 203 203 203 207 205 209 207 208 210 212 211 213 214
282 266 268 253 244 242 244 253 251 253 229 216 204 212 215 216 211 209 209 209 211 212 212 214 217 221 224 224 226 224 221 209 207 205 208 206 212 211 208 213 212 213 212